GW5295 Weather Reports


time (UTC)temp
C
wind
direction
speed
KPH
gust
KPH
rain 1hr
cm
rain 24hr
cm
rain mn
cm
humidity
%
barometer
mb
20260906231559 14 283 8.0 14.5 0.00 0.00 0.00 84 1017.2
20260906231024 14 283 4.8 12.9 0.00 0.00 0.00 84 1017.3
20260906230517 14 283 6.4 14.5 0.00 0.00 0.00 84 1017.2
20260906230050 15 285 4.8 14.5 0.00 0.00 0.00 83 1017.3
20260906225519 15 286 6.4 12.9 0.00 0.00 0.00 84 1017.4
20260906225018 14 284 6.4 12.9 0.00 0.00 0.00 84 1017.3
20260906224558 15 298 6.4 12.9 0.00 0.00 0.00 85 1017.3
20260906224019 15 282 3.2 12.9 0.00 0.00 0.00 85 1017.3
20260906223519 14 282 6.4 14.5 0.00 0.00 0.00 86 1017.4
20260906223057 14 281 9.7 14.5 0.00 0.00 0.00 86 1017.3
20260906222520 14 311 3.2 14.5 0.00 0.00 0.00 88 1017.2
20260906222020 13 327 4.8 14.5 0.00 0.00 0.00 89 1017.3
20260906221555 13 319 9.7 14.5 0.00 0.00 0.00 89 1017.5
20260906221019 13 323 8.0 16.1 0.00 0.00 0.00 90 1017.4
20260906220519 13 302 8.0 16.1 0.00 0.00 0.00 90 1017.5
20260906220052 13 321 6.4 16.1 0.00 0.00 0.00 90 1017.4
20260906215516 13 338 6.4 16.1 0.00 0.00 0.00 90 1017.3
20260906215018 13 285 8.0 14.5 0.00 0.00 0.00 91 1017.5
20260906214557 13 302 6.4 17.7 0.00 0.00 0.00 92 1017.4
20260906214017 12 298 8.0 17.7 0.00 0.00 0.00 92 1017.3
20260906213525 12 321 6.4 19.3 0.00 0.00 0.00 92 1017.3
20260906213052 12 303 12.9 19.3 0.00 0.00 0.00 92 1017.3
20260906212521 12 313 12.9 19.3 0.00 0.00 0.00 92 1017.4
20260906212020 12 316 12.9 17.7 0.00 0.00 0.00 92 1017.4
20260906211552 12 310 12.9 16.1 0.00 0.00 0.00 91 1017.2
20260906211019 12 299 9.7 16.1 0.00 0.00 0.00 91 1017.3
20260906210521 12 319 8.0 19.3 0.00 0.00 0.00 92 1017.3
20260906210113 12 282 11.3 19.3 0.00 0.00 0.00 91 1017.5
20260906205518 12 303 9.7 20.9 0.00 0.00 0.00 92 1017.6
20260906205019 12 300 12.9 19.3 0.00 0.00 0.00 91 1017.5
20260906204559 12 304 12.9 19.3 0.00 0.00 0.00 91 1017.4
20260906204017 12 296 12.9 17.7 0.00 0.00 0.00 90 1017.5
20260906203518 13 317 8.0 16.1 0.00 0.00 0.00 90 1017.5
20260906203050 13 332 6.4 17.7 0.00 0.00 0.00 91 1017.4
20260906202517 12 333 8.0 19.3 0.00 0.00 0.00 91 1017.4
20260906202019 12 305 14.5 19.3 0.00 0.00 0.00 90 1017.5
20260906201601 12 281 12.9 17.7 0.00 0.00 0.00 89 1017.6
20260906201018 13 304 11.3 17.7 0.00 0.00 0.00 88 1017.5
20260906200521 13 349 6.4 14.5 0.00 0.00 0.00 87 1017.6
20260906200119 13 321 4.8 12.9 0.00 0.00 0.00 88 1017.6
20260906195518 13 334 6.4 12.9 0.00 0.00 0.00 88 1017.7
20260906195020 13 289 6.4 12.9 0.00 0.00 0.00 87 1017.7
20260906194554 13 284 6.4 12.9 0.00 0.00 0.00 88 1017.8
20260906194018 13 340 3.2 14.5 0.00 0.00 0.00 88 1017.7
20260906193518 13 333 6.4 16.1 0.00 0.00 0.00 88 1017.8
20260906193052 13 286 8.0 17.7 0.00 0.00 0.00 88 1017.8
20260906192517 13 287 11.3 16.1 0.00 0.00 0.00 86 1017.7
20260906192017 13 285 8.0 14.5 0.00 0.00 0.00 86 1017.8
20260906191551 13 335 3.2 6.4 0.00 0.00 0.00 87 1017.7
20260906191019 13 295 1.6 8.0 0.00 0.00 0.00 87 1017.7
20260906190518 13 287 4.8 8.0 0.00 0.00 0.00 86 1017.8
20260906190139 13 286 1.6 8.0 0.00 0.00 0.00 86 1017.9
20260906185517 13 306 3.2 8.0 0.00 0.00 0.00 85 1017.9
20260906185023 13 338 1.6 11.3 0.00 0.00 0.00 86 1018.0
20260906184553 13 315 3.2 11.3 0.00 0.00 0.00 86 1017.9
20260906184017 13 299 4.8 8.0 0.00 0.00 0.00 86 1017.9
20260906183519 13 287 3.2 4.8 0.00 0.00 0.00 85 1017.9
20260906183058 13 53 0.0 6.4 0.00 0.00 0.00 85 1018.0
20260906182517 13 76 1.6 6.4 0.00 0.00 0.00 86 1017.9
20260906182017 13 43 4.8 8.0 0.00 0.00 0.00 87 1018.0
20260906181602 13 53 4.8 8.0 0.00 0.00 0.00 88 1017.8
20260906181024 12 49 4.8 8.0 0.00 0.00 0.00 88 1017.8
20260906180518 12 103 4.8 9.7 0.00 0.00 0.00 89 1017.7
20260906180103 12 53 4.8 12.9 0.00 0.00 0.00 89 1018.0
20260906175522 12 24 3.2 9.7 0.00 0.00 0.00 90 1018.2
20260906175019 12 61 4.8 8.0 0.00 0.00 0.00 90 1018.0
20260906174552 12 78 1.6 6.4 0.00 0.00 0.00 90 1018.1
20260906174020 12 89 1.6 6.4 0.00 0.00 0.00 90 1018.3
20260906173517 12 102 1.6 4.8 0.00 0.00 0.00 91 1018.1
20260906173057 12 287 0.0 3.2 0.00 0.00 0.00 91 1018.2
20260906172518 12 287 0.0 4.8 0.00 0.00 0.00 91 1018.3
20260906172016 12 347 1.6 8.0 0.00 0.00 0.00 91 1018.2
20260906171556 12 5 3.2 8.0 0.00 0.00 0.00 92 1018.1
20260906171018 12 331 1.6 6.4 0.00 0.00 0.00 92 1018.1
20260906170520 12 341 3.2 6.4 0.00 0.00 0.00 92 1018.3
20260906170109 12 288 0.0 6.4 0.00 0.00 0.00 92 1018.2
20260906165520 11 326 1.6 6.4 0.00 0.00 0.00 93 1018.1
20260906165017 11 336 1.6 8.0 0.00 0.00 0.00 92 1018.1
20260906164602 11 326 3.2 8.0 0.00 0.00 0.00 93 1018.2
20260906164020 11 302 3.2 6.4 0.00 0.00 0.00 93 1018.1
20260906163520 11 318 1.6 6.4 0.00 0.00 0.00 93 1018.2
20260906163103 11 313 3.2 8.0 0.00 0.00 0.00 93 1018.2
20260906162521 11 342 1.6 8.0 0.00 0.00 0.00 93 1018.2
20260906162019 11 313 3.2 8.0 0.00 0.00 0.00 93 1018.2
20260906161557 11 306 1.6 8.0 0.00 0.00 0.00 93 1018.2
20260906161019 11 342 1.6 8.0 0.00 0.00 0.00 93 1018.0
20260906160520 11 284 3.2 8.0 0.00 0.00 0.00 93 1018.1
20260906160109 11 321 3.2 8.0 0.00 0.00 0.00 93 1017.9
20260906155521 11 331 1.6 8.0 0.00 0.00 0.00 92 1018.1
20260906155020 11 299 0.0 6.4 0.00 0.00 0.00 92 1018.0
20260906154924 11 317 1.6 4.8 0.00 0.00 0.00 93 1017.9
20260906154019 11 352 1.6 4.8 0.00 0.00 0.00 93 1017.9
20260906153519 11 329 0.0 4.8 0.00 0.00 0.00 92 1018.0
20260906153047 11 329 0.0 4.8 0.00 0.00 0.00 93 1017.9
20260906152518 11 38 0.0 3.2 0.00 0.00 0.00 93 1017.9
20260906152019 11 103 0.0 3.2 0.00 0.00 0.00 93 1017.8
20260906151545 11 102 0.0 4.8 0.00 0.00 0.00 93 1017.7
20260906151023 11 102 1.6 6.4 0.00 0.00 0.00 93 1018.0
20260906150520 11 104 3.2 6.4 0.00 0.00 0.00 93 1017.8
20260906150044 11 104 3.2 6.4 0.00 0.00 0.00 93 1017.9
20260906145521 11 104 3.2 6.4 0.00 0.00 0.00 93 1018.0
20260906145025 11 104 3.2 6.4 0.00 0.00 0.00 93 1018.1
20260906144552 11 104 3.2 9.7 0.00 0.00 0.00 93 1018.3
20260906144016 11 104 4.8 9.7 0.00 0.00 0.00 93 1018.2
20260906143520 11 98 4.8 11.3 0.00 0.00 0.00 93 1018.3
20260906143048 11 74 4.8 8.0 0.00 0.00 0.00 93 1018.2
20260906142523 11 103 3.2 6.4 0.00 0.00 0.00 93 1018.1
20260906142022 11 105 1.6 4.8 0.00 0.00 0.00 93 1018.0
20260906141550 11 105 0.0 6.4 0.00 0.00 0.00 93 1017.9
20260906141018 11 105 1.6 11.3 0.00 0.00 0.00 93 1017.9
20260906140523 11 105 4.8 11.3 0.00 0.00 0.00 93 1017.9
20260906140052 11 105 8.0 14.5 0.00 0.00 0.00 93 1017.9
20260906135516 11 102 9.7 14.5 0.00 0.00 0.00 93 1017.8
20260906135018 11 105 9.7 14.5 0.00 0.00 0.00 93 1017.9
20260906134545 11 113 6.4 12.9 0.00 0.00 0.00 93 1018.0
20260906134020 11 116 8.0 12.9 0.00 0.00 0.00 93 1017.9
20260906133521 11 128 4.8 11.3 0.00 0.00 0.00 93 1018.0
20260906133108 11 117 4.8 14.5 0.00 0.00 0.00 93 1018.0
20260906132519 10 128 8.0 14.5 0.00 0.00 0.00 93 1017.8
20260906132017 11 117 6.4 12.9 0.00 0.00 0.00 93 1017.9
20260906131539 10 113 6.4 14.5 0.00 0.00 0.00 93 1017.9
20260906131019 11 119 8.0 14.5 0.00 0.00 0.00 93 1017.7
20260906130519 11 110 8.0 14.5 0.00 0.00 0.00 93 1017.9
20260906130109 10 100 6.4 12.9 0.00 0.00 0.00 93 1017.8
20260906125518 11 109 9.7 12.9 0.00 0.00 0.00 92 1017.9
20260906125019 11 109 4.8 11.3 0.00 0.00 0.00 92 1017.9
20260906124552 11 109 4.8 12.9 0.00 0.00 0.00 92 1017.9
20260906124018 11 109 9.7 14.5 0.00 0.00 0.00 92 1017.9
20260906123518 11 116 8.0 12.9 0.00 0.00 0.00 92 1017.9
20260906123047 11 115 9.7 12.9 0.00 0.00 0.00 92 1017.8
20260906122519 11 121 8.0 12.9 0.00 0.00 0.00 92 1017.8
20260906122021 11 122 4.8 12.9 0.00 0.00 0.00 92 1017.7
20260906121549 11 107 6.4 16.1 0.00 0.00 0.00 91 1017.7
20260906121019 11 110 9.7 16.1 0.00 0.00 0.00 91 1017.7
20260906120521 11 106 9.7 16.1 0.00 0.00 0.00 91 1017.5
20260906120050 11 111 8.0 16.1 0.00 0.00 0.00 91 1017.4
20260906115521 11 103 11.3 16.1 0.00 0.00 0.00 90 1017.3
20260906115022 11 111 11.3 16.1 0.00 0.00 0.00 90 1017.2
20260906114546 11 109 8.0 14.5 0.00 0.00 0.00 89 1017.1
20260906114018 11 109 11.3 14.5 0.00 0.00 0.00 89 1017.1
20260906113519 11 107 8.0 12.9 0.00 0.00 0.00 89 1017.0
20260906113045 12 105 8.0 16.1 0.00 0.00 0.00 89 1017.0
20260906112517 12 113 11.3 16.1 0.00 0.00 0.00 89 1017.0
20260906112024 12 105 8.0 16.1 0.00 0.00 0.00 88 1016.9
20260906111601 12 113 9.7 16.1 0.00 0.00 0.00 88 1016.9
20260906111016 12 114 8.0 14.5 0.00 0.00 0.00 88 1016.9
20260906110516 12 111 6.4 12.9 0.00 0.00 0.00 87 1016.8
20260906110100 12 111 8.0 12.9 0.00 0.00 0.00 87 1016.9
20260906105522 12 111 4.8 14.5 0.00 0.00 0.00 87 1016.8
20260906105018 12 113 8.0 12.9 0.00 0.00 0.00 87 1016.8
20260906104545 12 113 4.8 11.3 0.00 0.00 0.00 87 1016.8
20260906104019 12 114 6.4 11.3 0.00 0.00 0.00 88 1016.8
20260906103519 12 129 8.0 11.3 0.00 0.00 0.00 89 1016.7
20260906103051 12 133 6.4 11.3 0.00 0.00 0.00 90 1016.8
20260906102520 12 115 4.8 11.3 0.00 0.00 0.00 90 1016.9
20260906102020 12 275 4.8 9.7 0.00 0.00 0.00 91 1016.8
20260906101553 12 275 3.2 6.4 0.00 0.00 0.00 91 1016.8
20260906101019 12 275 4.8 6.4 0.00 0.00 0.00 91 1016.8
20260906100521 12 275 0.0 6.4 0.00 0.00 0.00 90 1016.8
20260906100049 12 275 0.0 9.7 0.00 0.00 0.00 90 1017.0
20260906095520 12 275 4.8 11.3 0.00 0.00 0.00 89 1017.0
20260906095018 12 275 6.4 11.3 0.00 0.00 0.00 88 1016.9
20260906094600 12 275 8.0 11.3 0.00 0.00 0.00 86 1016.8
20260906094019 12 275 6.4 14.5 0.00 0.00 0.00 84 1016.8
20260906093520 12 275 9.7 14.5 0.00 0.00 0.00 81 1016.8
20260906093056 13 275 6.4 9.7 0.00 0.00 0.00 81 1016.7
20260906092517 13 109 0.0 4.8 0.00 0.00 0.00 81 1016.6
20260906092020 13 109 3.2 4.8 0.00 0.00 0.00 79 1016.5
20260906091543 14 109 0.0 0.0 0.00 0.00 0.00 77 1016.4
20260906091019 14 109 0.0 0.0 0.00 0.00 0.00 77 1016.4
20260906090520 14 109 0.0 0.0 0.00 0.00 0.00 76 1016.5
20260906090114 14 109 0.0 0.0 0.00 0.00 0.00 75 1016.5
20260906085519 14 109 0.0 0.0 0.00 0.00 0.00 75 1016.7
20260906085019 14 109 0.0 0.0 0.00 0.00 0.00 75 1016.6
20260906084552 14 109 0.0 4.8 0.00 0.00 0.00 75 1016.7
20260906084018 14 109 0.0 4.8 0.00 0.00 0.00 75 1016.8
20260906083524 14 109 3.2 4.8 0.00 0.00 0.00 75 1016.6
20260906083053 14 109 1.6 6.4 0.00 0.00 0.00 73 1016.5
20260906082517 14 109 3.2 6.4 0.00 0.00 0.00 74 1016.3
20260906082017 14 109 1.6 3.2 0.00 0.00 0.00 73 1016.3
20260906081551 14 109 1.6 4.8 0.00 0.00 0.00 73 1016.3
20260906081021 15 109 1.6 9.7 0.00 0.00 0.00 73 1016.5
20260906080518 15 109 4.8 9.7 0.00 0.00 0.00 70 1016.4
20260906080055 16 109 1.6 9.7 0.00 0.00 0.00 67 1016.4
20260906075517 16 109 4.8 11.3 0.00 0.00 0.00 67 1016.4
20260906075018 16 109 4.8 11.3 0.00 0.00 0.00 67 1016.3
20260906074551 16 109 4.8 9.7 0.00 0.00 0.00 68 1016.2
20260906074021 16 109 3.2 4.8 0.00 0.00 0.00 69 1016.3
20260906073518 16 109 1.6 9.7 0.00 0.00 0.00 69 1016.2
20260906073054 15 109 4.8 9.7 0.00 0.00 0.00 70 1016.4
20260906072519 15 109 6.4 9.7 0.00 0.00 0.00 71 1016.3
20260906072018 15 109 4.8 9.7 0.00 0.00 0.00 72 1016.2
20260906071552 15 109 3.2 6.4 0.00 0.00 0.00 73 1016.2
20260906071021 15 109 1.6 4.8 0.00 0.00 0.00 71 1016.3
20260906070522 15 109 1.6 3.2 0.00 0.00 0.00 72 1016.1
20260906070045 15 109 1.6 4.8 0.00 0.00 0.00 73 1016.6
20260906065526 15 109 1.6 4.8 0.00 0.00 0.00 73 1016.2
20260906065021 15 109 0.0 3.2 0.00 0.00 0.00 71 1016.3
20260906064551 15 109 0.0 0.0 0.00 0.00 0.00 70 1016.2
20260906064021 15 109 0.0 4.8 0.00 0.00 0.00 72 1016.2
20260906063525 15 109 1.6 4.8 0.00 0.00 0.00 72 1016.1
20260906063055 15 109 1.6 4.8 0.00 0.00 0.00 74 1016.1
20260906062518 15 109 1.6 6.4 0.00 0.00 0.00 78 1016.2
20260906062020 15 109 3.2 6.4 0.00 0.00 0.00 75 1016.3
20260906061602 15 109 0.0 4.8 0.00 0.00 0.00 73 1016.3
20260906061019 15 109 1.6 4.8 0.00 0.00 0.00 76 1016.1
20260906060524 15 109 0.0 3.2 0.00 0.00 0.00 73 1016.2
20260906055523 15 109 1.6 3.2 0.00 0.00 0.00 74 1016.1
20260906055020 15 109 0.0 3.2 0.00 0.00 0.00 73 1016.1
20260906054606 15 109 0.0 3.2 0.00 0.00 0.00 73 1016.2
20260906054018 15 109 1.6 3.2 0.00 0.00 0.00 72 1016.2
20260906053519 15 109 0.0 4.8 0.00 0.00 0.00 72 1016.3
20260906053415 15 109 1.6 6.4 0.00 0.00 0.00 71 1016.2
20260906052524 15 109 3.2 9.7 0.00 0.00 0.00 71 1016.0
20260906052024 16 109 4.8 11.3 0.00 0.00 0.00 68 1016.0
20260906051608 17 103 0.0 4.8 0.00 0.00 0.00 63 1016.0
20260906051024 17 102 0.0 6.4 0.00 0.00 0.00 64 1016.0
20260906050519 17 74 3.2 6.4 0.00 0.00 0.00 66 1015.9
20260906050101 17 82 3.2 6.4 0.00 0.00 0.00 66 1015.9
20260906045523 17 80 4.8 9.7 0.00 0.00 0.00 65 1015.9
20260906045018 17 78 4.8 11.3 0.00 0.00 0.00 66 1016.0
20260906044622 17 86 6.4 11.3 0.00 0.00 0.00 66 1016.0
20260906044023 17 103 8.0 11.3 0.00 0.00 0.00 66 1016.0
20260906043520 17 83 6.4 12.9 0.00 0.00 0.00 65 1016.0
20260906043103 17 87 8.0 12.9 0.00 0.00 0.00 66 1016.1
20260906042524 17 94 9.7 11.3 0.00 0.00 0.00 68 1016.1
20260906042024 17 90 4.8 9.7 0.00 0.00 0.00 69 1016.1
20260906041610 17 103 4.8 12.9 0.00 0.00 0.00 67 1016.2
20260906041021 17 88 8.0 12.9 0.00 0.00 0.00 68 1016.2
20260906040521 16 282 8.0 11.3 0.00 0.00 0.00 68 1016.2
20260906040120 16 282 6.4 11.3 0.00 0.00 0.00 69 1016.2
20260906035531 16 282 6.4 8.0 0.00 0.00 0.00 69 1016.3
20260906035024 16 282 3.2 6.4 0.00 0.00 0.00 69 1016.3
20260906034604 16 282 3.2 8.0 0.00 0.00 0.00 71 1016.3
20260906034025 16 282 4.8 9.7 0.00 0.00 0.00 68 1016.3
20260906033523 16 282 0.0 6.4 0.00 0.00 0.00 67 1016.4
20260906033104 16 282 3.2 8.0 0.00 0.00 0.00 66 1016.3
20260906032520 16 282 4.8 6.4 0.00 0.00 0.00 66 1016.3
20260906032023 16 282 3.2 4.8 0.00 0.00 0.00 66 1016.3
20260906031618 16 282 0.0 4.8 0.00 0.00 0.00 65 1016.2
20260906031024 17 282 3.2 6.4 0.00 0.00 0.00 65 1016.2
20260906030524 17 282 4.8 8.0 0.00 0.00 0.00 65 1016.1
20260906030121 17 282 4.8 8.0 0.00 0.00 0.00 64 1016.1
20260906025524 18 282 6.4 9.7 0.00 0.00 0.00 65 1016.2
20260906025024 18 282 1.6 4.8 0.00 0.00 0.00 64 1016.2
20260906024625 18 282 1.6 4.8 0.00 0.00 0.00 63 1016.1
20260906024021 19 282 0.0 3.2 0.00 0.00 0.00 61 1016.1
20260906023526 19 282 0.0 3.2 0.00 0.00 0.00 62 1016.1
20260906023117 19 282 0.0 4.8 0.00 0.00 0.00 63 1016.1
20260906022521 18 282 0.0 4.8 0.00 0.00 0.00 64 1016.1
20260906022022 18 282 3.2 4.8 0.00 0.00 0.00 65 1016.1
20260906021623 18 282 1.6 4.8 0.00 0.00 0.00 63 1016.1
20260906021023 18 282 3.2 6.4 0.00 0.00 0.00 63 1016.1
20260906020524 18 282 3.2 6.4 0.00 0.00 0.00 64 1016.2
20260906020123 18 282 3.2 6.4 0.00 0.00 0.00 62 1016.2
20260906015523 18 282 3.2 8.0 0.00 0.00 0.00 65 1016.2
20260906015024 18 282 4.8 8.0 0.00 0.00 0.00 65 1016.2
20260906014621 18 282 4.8 9.7 0.00 0.00 0.00 65 1016.1
20260906014024 18 282 8.0 11.3 0.00 0.00 0.00 65 1016.2
20260906013526 18 282 8.0 11.3 0.00 0.00 0.00 65 1016.2
20260906013125 18 282 8.0 11.3 0.00 0.00 0.00 65 1016.3
20260906012525 18 282 8.0 11.3 0.00 0.00 0.00 65 1016.3
20260906012025 19 282 8.0 11.3 0.00 0.00 0.00 64 1016.0
20260906011622 19 282 8.0 11.3 0.00 0.00 0.00 64 1015.9
20260906011024 19 282 6.4 9.7 0.00 0.00 0.00 62 1016.0
20260906010527 20 282 6.4 11.3 0.00 0.00 0.00 63 1016.1
20260906010133 20 282 9.7 11.3 0.00 0.00 0.00 60 1016.1
20260906005524 20 282 6.4 11.3 0.00 0.00 0.00 59 1016.2
20260906005024 20 282 6.4 11.3 0.00 0.00 0.00 58 1016.1
20260906004538 21 282 4.8 6.4 0.00 0.00 0.00 55 1016.2
20260906004029 21 282 3.2 11.3 0.00 0.00 0.00 55 1016.2
20260906003525 21 282 6.4 11.3 0.00 0.00 0.00 54 1016.2
20260906003124 21 282 8.0 12.9 0.00 0.00 0.00 54 1016.2
20260906002518 21 282 9.7 12.9 0.00 0.00 0.00 51 1016.3
20260906002026 21 282 6.4 12.9 0.00 0.00 0.00 54 1016.0
20260906001603 20 282 9.7 14.5 0.00 0.00 0.00 53 1016.1
20260906001027 20 281 11.3 14.5 0.00 0.00 0.00 50 1016.2
20260906000524 21 284 9.7 14.5 0.00 0.00 0.00 49 1016.2
20260906000107 22 284 8.0 11.3 0.00 0.00 0.00 47 1016.4
20260905235524 22 284 4.8 9.7 0.00 0.00 0.00 48 1016.4
20260905235025 22 284 3.2 8.0 0.00 0.00 0.00 49 1016.5
20260905234608 22 284 3.2 6.4 0.00 0.00 0.00 47 1016.4
20260905234025 22 284 3.2 6.4 0.00 0.00 0.00 48 1016.5
20260905233524 22 284 3.2 6.4 0.00 0.00 0.00 51 1016.5
20260905233107 21 284 3.2 8.0 0.00 0.00 0.00 52 1016.5
20260905232527 21 284 4.8 8.0 0.00 0.00 0.00 51 1016.5
20260905232023 21 284 6.4 11.3 0.00 0.00 0.00 50 1016.6